| time (UTC) | temp C | wind direction | speed KPH | gust KPH | rain 1hr cm | rain 24hr cm | rain mn cm | humidity % | barometer mb |
| 20260506163015 | 11 | 287 | 6.4 | 20.9 | 0.48 | 3.25 | 3.25 | 86 | 1011.0 |
| 20260506161508 | 11 | 246 | 6.4 | 17.7 | 0.79 | 3.25 | 3.25 | 86 | 1010.8 |
| 20260506160012 | 11 | 281 | 16.1 | 27.4 | 0.81 | 3.20 | 3.20 | 89 | 1010.7 |
| 20260506154504 | 11 | 286 | 11.3 | 17.7 | 0.66 | 3.02 | 3.02 | 89 | 1011.4 |
| 20260506153059 | 11 | 360 | 6.4 | 14.5 | 0.48 | 2.77 | 2.77 | 90 | 1011.8 |
| 20260506151559 | 11 | 325 | 1.6 | 6.4 | 0.41 | 2.46 | 2.46 | 90 | 1011.9 |
| 20260506150057 | 11 | 333 | 4.8 | 16.1 | 0.56 | 2.39 | 2.39 | 90 | 1011.5 |
| 20260506144600 | 11 | 310 | 6.4 | 14.5 | 0.58 | 2.36 | 2.36 | 92 | 1010.9 |
| 20260506143055 | 12 | 291 | 4.8 | 8.0 | 0.48 | 2.26 | 2.26 | 91 | 1010.8 |
| 20260506141557 | 12 | 313 | 3.2 | 6.4 | 0.28 | 2.06 | 2.06 | 90 | 1010.9 |
| 20260506140101 | 12 | 210 | 1.6 | 9.7 | 0.05 | 1.83 | 1.83 | 90 | 1010.9 |
| 20260506134551 | 12 | 277 | 1.6 | 11.3 | 0.00 | 1.78 | 1.78 | 90 | 1010.3 |
| 20260506133051 | 12 | 276 | 1.6 | 8.0 | 0.00 | 1.78 | 1.78 | 87 | 1010.2 |
| 20260506131550 | 12 | 288 | 1.6 | 14.5 | 0.03 | 1.78 | 1.78 | 89 | 1010.0 |
| 20260506130053 | 13 | 288 | 3.2 | 6.4 | 0.03 | 1.78 | 1.78 | 88 | 1009.8 |
| 20260506124547 | 13 | 230 | 1.6 | 4.8 | 0.03 | 1.78 | 1.78 | 89 | 1009.9 |
| 20260506123046 | 13 | 5 | 0.0 | 4.8 | 0.03 | 1.78 | 1.78 | 87 | 1010.1 |
| 20260506121545 | 13 | 76 | 1.6 | 4.8 | 0.00 | 1.75 | 1.75 | 89 | 1009.9 |
| 20260506120050 | 12 | 302 | 1.6 | 8.0 | 0.00 | 1.75 | 1.75 | 89 | 1009.7 |
| 20260506114550 | 13 | 268 | 9.7 | 14.5 | 0.00 | 1.75 | 1.75 | 91 | 1009.9 |
| 20260506113043 | 13 | 330 | 3.2 | 12.9 | 0.03 | 1.75 | 1.75 | 91 | 1009.9 |
| 20260506111543 | 13 | 266 | 1.6 | 8.0 | 0.05 | 1.75 | 1.75 | 89 | 1010.3 |
| 20260506110038 | 12 | 268 | 1.6 | 6.4 | 0.10 | 1.75 | 1.75 | 90 | 1010.3 |
| 20260506104541 | 12 | 84 | 0.0 | 0.0 | 0.28 | 1.75 | 1.75 | 91 | 1010.5 |
| 20260506103035 | 12 | 69 | 0.0 | 6.4 | 0.36 | 1.73 | 1.73 | 93 | 1010.5 |
| 20260506101537 | 12 | 42 | 0.0 | 4.8 | 0.46 | 1.70 | 1.70 | 94 | 1010.6 |
| 20260506100038 | 11 | 62 | 3.2 | 9.7 | 0.43 | 1.63 | 1.63 | 94 | 1010.9 |
| 20260506094533 | 12 | 103 | 4.8 | 9.7 | 0.28 | 1.52 | 1.45 | 94 | 1010.5 |
| 20260506093052 | 12 | 268 | 0.0 | 4.8 | 0.18 | 1.42 | 1.37 | 94 | 1010.2 |
| 20260506091533 | 12 | 198 | 1.6 | 3.2 | 0.08 | 1.30 | 1.24 | 94 | 1009.9 |
| 20260506090034 | 12 | 144 | 1.6 | 3.2 | 0.08 | 1.24 | 1.19 | 94 | 1009.6 |
| 20260506084530 | 12 | 68 | 1.6 | 4.8 | 0.15 | 1.52 | 1.19 | 94 | 1009.9 |
| 20260506083025 | 12 | 61 | 0.0 | 3.2 | 0.18 | 1.52 | 1.19 | 94 | 1010.0 |
| 20260506081525 | 12 | 61 | 0.0 | 1.6 | 0.18 | 1.50 | 1.17 | 94 | 1010.1 |
| 20260506073021 | 11 | 68 | 0.0 | 3.2 | 0.08 | 1.42 | 1.02 | 95 | 1010.3 |
| 20260506071519 | 11 | 57 | 0.0 | 4.8 | 0.08 | 1.42 | 0.99 | 95 | 1010.5 |
| 20260506061517 | 11 | 163 | 0.0 | 0.0 | 0.23 | 1.35 | 0.91 | 95 | 1010.7 |
| 20260506044515 | 11 | 50 | 0.0 | 0.0 | 0.03 | 1.04 | 0.61 | 95 | 1010.7 |
| 20260506043011 | 11 | 315 | 0.0 | 3.2 | 0.03 | 1.04 | 0.61 | 95 | 1010.7 |
| 20260506041511 | 11 | 315 | 0.0 | 0.0 | 0.03 | 1.04 | 0.61 | 95 | 1010.7 |
| 20260506040011 | 11 | 315 | 0.0 | 3.2 | 0.03 | 1.04 | 0.61 | 95 | 1010.7 |
| 20260506034508 | 11 | 36 | 0.0 | 3.2 | 0.00 | 1.02 | 0.58 | 95 | 1010.9 |
| 20260506033006 | 11 | 291 | 0.0 | 0.0 | 0.03 | 1.02 | 0.58 | 95 | 1011.0 |
| 20260506031506 | 11 | 291 | 0.0 | 0.0 | 0.05 | 1.02 | 0.58 | 95 | 1011.0 |
| 20260506030004 | 11 | 291 | 0.0 | 3.2 | 0.05 | 1.02 | 0.58 | 95 | 1011.2 |
| 20260506024504 | 11 | 291 | 1.6 | 3.2 | 0.05 | 1.02 | 0.58 | 95 | 1011.6 |
| 20260506023100 | 11 | 305 | 1.6 | 4.8 | 0.03 | 0.99 | 0.56 | 95 | 1011.8 |
| 20260506021558 | 11 | 32 | 0.0 | 0.0 | 0.00 | 0.97 | 0.53 | 94 | 1012.0 |
| 20260506020123 | 11 | 51 | 0.0 | 1.6 | 0.08 | 0.97 | 0.53 | 94 | 1012.0 |
| 20260506014556 | 11 | 55 | 0.0 | 0.0 | 0.08 | 0.97 | 0.53 | 94 | 1012.1 |
| 20260506013056 | 11 | 43 | 0.0 | 0.0 | 0.10 | 0.97 | 0.53 | 94 | 1012.1 |
| 20260506011559 | 11 | 304 | 0.0 | 0.0 | 0.13 | 0.97 | 0.53 | 94 | 1012.2 |
| 20260506010053 | 11 | 304 | 0.0 | 0.0 | 0.13 | 0.89 | 0.46 | 94 | 1012.5 |
| 20260506004552 | 11 | 304 | 0.0 | 0.0 | 0.15 | 0.86 | 0.43 | 94 | 1012.4 |
| 20260506003051 | 11 | 304 | 0.0 | 0.0 | 0.23 | 0.86 | 0.43 | 94 | 1012.6 |
| 20260506001601 | 11 | 304 | 0.0 | 1.6 | 0.28 | 0.84 | 0.41 | 94 | 1012.9 |
| 20260506000109 | 11 | 49 | 0.0 | 0.0 | 0.25 | 0.76 | 0.33 | 93 | 1012.9 |
| 20260505234547 | 11 | 49 | 0.0 | 0.0 | 0.28 | 0.71 | 0.28 | 93 | 1012.9 |
| 20260505233051 | 11 | 49 | 0.0 | 0.0 | 0.20 | 0.64 | 0.20 | 93 | 1013.2 |
| 20260505231552 | 11 | 49 | 0.0 | 0.0 | 0.13 | 0.56 | 0.13 | 93 | 1013.3 |
| 20260505230049 | 11 | 49 | 0.0 | 3.2 | 0.08 | 0.51 | 0.08 | 92 | 1013.2 |
| 20260505224548 | 11 | 49 | 1.6 | 3.2 | 0.00 | 0.43 | 0.00 | 92 | 1013.2 |
| 20260505223042 | 11 | 61 | 0.0 | 0.0 | 0.00 | 0.43 | 0.00 | 92 | 1013.3 |
| 20260505221548 | 11 | 61 | 0.0 | 0.0 | 0.00 | 0.43 | 0.00 | 92 | 1013.4 |
| 20260505220039 | 11 | 61 | 0.0 | 0.0 | 0.00 | 0.43 | 0.00 | 92 | 1013.5 |
| 20260505214544 | 11 | 61 | 0.0 | 3.2 | 0.00 | 0.43 | 0.43 | 91 | 1013.7 |
| 20260505213037 | 12 | 148 | 0.0 | 0.0 | 0.00 | 0.43 | 0.43 | 92 | 1013.8 |
| 20260505211604 | 12 | 148 | 0.0 | 0.0 | 0.00 | 0.43 | 0.43 | 91 | 1014.0 |
| 20260505210042 | 12 | 148 | 0.0 | 0.0 | 0.00 | 0.43 | 0.43 | 91 | 1014.1 |
| 20260505204548 | 12 | 148 | 0.0 | 0.0 | 0.00 | 0.43 | 0.43 | 91 | 1014.2 |
| 20260505203035 | 12 | 148 | 0.0 | 1.6 | 0.00 | 0.43 | 0.43 | 91 | 1014.1 |
| 20260505201538 | 12 | 148 | 0.0 | 3.2 | 0.00 | 0.43 | 0.43 | 92 | 1013.9 |
| 20260505200037 | 12 | 148 | 0.0 | 0.0 | 0.00 | 0.43 | 0.43 | 91 | 1014.0 |
| 20260505194534 | 12 | 360 | 0.0 | 0.0 | 0.00 | 0.43 | 0.43 | 92 | 1013.9 |
| 20260505193033 | 12 | 149 | 0.0 | 0.0 | 0.00 | 0.43 | 0.43 | 91 | 1013.8 |
| 20260505191535 | 12 | 149 | 0.0 | 0.0 | 0.00 | 0.43 | 0.43 | 91 | 1013.7 |
| 20260505190032 | 12 | 150 | 0.0 | 0.0 | 0.00 | 0.43 | 0.43 | 90 | 1013.5 |
| 20260505184539 | 12 | 148 | 0.0 | 0.0 | 0.00 | 0.43 | 0.43 | 89 | 1013.5 |
| 20260505183030 | 12 | 148 | 0.0 | 0.0 | 0.00 | 0.43 | 0.43 | 89 | 1013.4 |
| 20260505181643 | 12 | 148 | 0.0 | 0.0 | 0.00 | 0.43 | 0.43 | 89 | 1013.3 |
| 20260505180030 | 12 | 148 | 0.0 | 0.0 | 0.00 | 0.43 | 0.43 | 89 | 1013.4 |
| 20260505174537 | 12 | 148 | 0.0 | 0.0 | 0.00 | 0.43 | 0.43 | 89 | 1013.4 |
| 20260505173028 | 12 | 146 | 0.0 | 3.2 | 0.00 | 0.43 | 0.43 | 89 | 1013.4 |
| 20260505171537 | 12 | 146 | 0.0 | 4.8 | 0.00 | 0.43 | 0.43 | 89 | 1013.4 |
| 20260505170028 | 12 | 236 | 1.6 | 4.8 | 0.00 | 0.43 | 0.43 | 88 | 1013.3 |
| 20260505164527 | 13 | 256 | 0.0 | 4.8 | 0.00 | 0.43 | 0.43 | 88 | 1013.2 |